sat.trackr.live / text

‹ back to catalog

KUIPER-00099

NORAD 65138 · 2025-171G

PAYLOAD ACTIVE UNKNOWN

§ Identity

Operator
Country
US
Launch date
2025-08-11
Launch site
AFETR
Launch vehicle
Mass (kg)
RCS (m²)

External: N2YO · Heavens-Above · Gunter

§ Orbital elements

Epoch: 2026-05-24T19:44:46.452768Z

Period
97.30 min
Inclination
51.9004°
Eccentricity
0.0000548
Mean motion
14.79943822 rev/d
Perigee alt
629.1 km
Apogee alt
629.9 km
Semi-major
7,007.6 km
B*
2.6677e-4
RAAN
176.4287°
Arg perigee
52.6499°
Mean anomaly
307.4513°
Rev number
4,423

§ Raw data

KUIPER-000991 65138U 25171G   26144.82275987  .00001814  00000+0  26677-3 0  99982 65138  51.9004 176.4287 0000548  52.6499 307.4513 14.79943822 44236

JSON: /api/v1/satellites/65138 · /tle

For live sub-satellite position, see the globe view (requires WebGL).

§ Visibility from observer

Set your observer location to see the next 7 days of passes ≥ 10°. The values pass through the URL so the page stays shareable.

No JS? Fill the form by hand. The geolocation button needs JavaScript.